Saint Simons Island, GA

5:45 AM EST on December 09, 2019 (GMT -0500)
McKinnon

Weather History for KSSI - October, 2019

Change the Weather History Date:

Tuesday, October 8, 2019

  Actual Average Record
Temperature  
Mean Temperature 80 °F 72 °F  
Max Temperature 85 °F 80 °F 89 °F (1962)
Min Temperature 74 °F 65 °F 49 °F (1991)
Degree Days  
Heating Degree Days 0 0  
Month to date heating degree days 0 0  
Since 1 July heating degree days 0 0  
Cooling Degree Days 15 8  
Month to date cooling degree days 129 71  
Year to date cooling degree days 3116 2442  
Growing Degree Days 28 (Base 50)    
Moisture  
Dew Point 70 °F    
Average Humidity 74    
Maximum Humidity 93    
Minimum Humidity 55    
Precipitation  
Precipitation T in 0.17 in 4.30 in (1976)
Month to date precipitation 0.41 1.48  
Year to date precipitation 27.51 37.35  
Snow  
Snow 0.00 in - 0.00 in ()
Month to date snowfall 0.0  
Since 1 July snowfall 0.0  
Since 1 September snowfall 0.0  
Snow Depth 0.00 in    
Sea Level Pressure  
Sea Level Pressure 29.94 in    
Wind  
Wind Speed 11 mph (NNE)    
Max Wind Speed 17 mph    
Max Gust Speed 23 mph    
Visibility 10 miles    
Events      
T = Trace of Precipitation, MM = Missing Value Source: NWS Daily Summary

Daily Weather History Graph

Daily Weather History Graph

Search for Another Location

Airport or City:

Astronomy

Oct. 08, 2019 Rise Set
Actual Time 7:23 AM EDT 7:02 PM EDT
Civil Twilight 6:59 AM EDT 7:26 PM EDT
Nautical Twilight 6:31 AM EDT 7:54 PM EDT
Astronomical Twilight 6:03 AM EDT 8:22 PM EDT
Moon 4:37 PM EDT (10/8) 2:37 AM EDT (10/8)
Length of Visible Light 12h 27m
Length of Day
11h 38m
Waxing Gibbous, 77% of the Moon is Illuminated
Oct 8
Waxing Gibbous
Oct 13
Full
Oct 21
Last Quarter
Oct 27
New
Nov 4
First Quarter

Hourly Weather History & Observations

Time (EDT) Temp. Heat Index Dew Point Humidity Pressure Visibility Wind Dir Wind Speed Gust Speed Precip Events Conditions
12:53 AM 73.9 °F - 71.1 °F 91% 29.93 in 10.0 mi North 4.6 mph - 0.00 in   Partly Cloudy
1:20 AM 73.9 °F - 71.1 °F 91% 29.92 in 10.0 mi NW 4.6 mph - N/A   Scattered Clouds
1:29 AM 73.9 °F - 71.1 °F 91% 29.93 in 10.0 mi NNW 5.8 mph - N/A   Mostly Cloudy
1:53 AM 73.9 °F - 71.1 °F 91% 29.93 in 10.0 mi NNW 4.6 mph - N/A   Partly Cloudy
2:53 AM 73.9 °F - 71.1 °F 91% 29.91 in 10.0 mi North 4.6 mph - N/A   Mostly Cloudy
3:53 AM 73.9 °F - 72.0 °F 93% 29.90 in 10.0 mi North 6.9 mph - N/A   Partly Cloudy
4:53 AM 75.0 °F - 72.0 °F 90% 29.89 in 10.0 mi North 5.8 mph - N/A   Partly Cloudy
5:37 AM 75.0 °F - 72.0 °F 90% 29.90 in 10.0 mi NW 5.8 mph - 0.00 in   Overcast
5:53 AM 75.0 °F - 72.0 °F 90% 29.91 in 10.0 mi NNW 6.9 mph - 0.00 in   Overcast
6:27 AM 75.0 °F - 72.0 °F 90% 29.91 in 7.0 mi North 6.9 mph - N/A   Overcast
6:53 AM 73.9 °F - 72.0 °F 93% 29.92 in 9.0 mi NNW 6.9 mph - N/A   Overcast
7:04 AM 73.9 °F - 71.1 °F 91% 29.92 in 9.0 mi North 10.4 mph - N/A   Overcast
7:53 AM 73.9 °F - 71.1 °F 91% 29.93 in 8.0 mi NNW 10.4 mph - N/A   Overcast
8:21 AM 73.9 °F - 71.1 °F 91% 29.93 in 10.0 mi North 8.1 mph - N/A   Mostly Cloudy
8:53 AM 73.9 °F - 71.1 °F 91% 29.94 in 10.0 mi North 8.1 mph - N/A   Mostly Cloudy
9:53 AM 75.9 °F - 72.0 °F 87% 29.95 in 10.0 mi North 6.9 mph - N/A   Mostly Cloudy
10:15 AM 77.0 °F - 72.0 °F 84% 29.95 in 10.0 mi North 6.9 mph - N/A   Overcast
10:49 AM 78.8 °F - 71.6 °F 78% 29.96 in 10.0 mi North 8.1 mph - N/A   Mostly Cloudy
10:53 AM 78.1 °F - 73.0 °F 84% 29.96 in 10.0 mi North 8.1 mph - N/A   Overcast
11:48 AM 80.6 °F 84.6 °F 71.6 °F 74% 29.97 in 10.0 mi NNE 9.2 mph - N/A   Overcast
11:53 AM 81.0 °F 85.2 °F 72.0 °F 74% 29.97 in 10.0 mi North 9.2 mph - N/A   Overcast
12:34 PM 81.0 °F 84.9 °F 71.1 °F 72% 29.95 in 10.0 mi NNE 13.8 mph - N/A   Overcast
12:53 PM 82.9 °F 87.5 °F 71.1 °F 67% 29.95 in 10.0 mi NNE 17.3 mph 23.0 mph N/A   Mostly Cloudy
1:00 PM 82.9 °F 87.5 °F 71.1 °F 67% 29.95 in 10.0 mi NNE 15.0 mph 23.0 mph N/A   Mostly Cloudy
1:53 PM 82.9 °F 85.8 °F 68.0 °F 60% 29.94 in 10.0 mi NNE 16.1 mph - N/A   Partly Cloudy
2:53 PM 84.0 °F 86.5 °F 66.9 °F 56% 29.93 in 10.0 mi NE 15.0 mph - N/A   Clear
3:53 PM 82.9 °F 85.4 °F 66.9 °F 58% 29.93 in 10.0 mi NE 13.8 mph - N/A   Clear
4:53 PM 81.0 °F 83.0 °F 66.0 °F 60% 29.93 in 10.0 mi NE 13.8 mph - N/A   Clear
5:53 PM 81.0 °F 83.8 °F 68.0 °F 65% 29.94 in 10.0 mi NE 11.5 mph - N/A   Clear
6:53 PM 79.0 °F - 68.0 °F 69% 29.93 in 10.0 mi ENE 11.5 mph - N/A   Clear
7:53 PM 78.1 °F - 69.1 °F 74% 29.95 in 10.0 mi ENE 9.2 mph - N/A   Clear
8:53 PM 78.1 °F - 69.1 °F 74% 29.96 in 10.0 mi ENE 12.7 mph - N/A   Clear
9:53 PM 78.1 °F - 69.1 °F 74% 29.99 in 10.0 mi NE 11.5 mph - N/A   Scattered Clouds
10:05 PM 78.1 °F - 69.1 °F 74% 29.98 in 10.0 mi ENE 11.5 mph - N/A   Mostly Cloudy
10:49 PM 78.8 °F - 68.0 °F 69% 29.99 in 10.0 mi NE 11.5 mph - N/A   Mostly Cloudy
10:53 PM 78.1 °F - 68.0 °F 71% 30.00 in 10.0 mi ENE 11.5 mph - N/A   Mostly Cloudy
11:35 PM 78.1 °F - 66.9 °F 68% 30.00 in 10.0 mi NE 11.5 mph - N/A   Scattered Clouds
11:53 PM 78.1 °F - 66.9 °F 68% 30.00 in 10.0 mi ENE 12.7 mph - N/A   Scattered Clouds